Location: Burgwalden
(48.2830°N, 10.7576°E)
Time: 22:41:15
(UTC+00:00)

Meteor 2-2 Rocket - Pass Details

Date: 26 September 2023
Orbit: 853 x 927 km, 81.3° (Epoch: 08 December)

Event Time Altitude Azimuth Distance (km) Brightness Sun altitude
Exits shadow 02:35:03 56° 198° (SSW) 1,071 4.4 -25.3°
Maximum altitude 02:36:25 86° 280° (W) 912 4.2 -25.1°
Drops below altitude 10° 02:42:17 10° 11° (N) 2,566 7.2 -24.2°
Sets 02:44:44 0° 12° (NNE) 3,499 8.0 -23.9°
